Flag for France Weather past 2 weeks in Aurillac, France

Now
58 °F

Cool.


Feels Like: 58 °F
Forecast: 52 / 71 °F
Wind: 3 mph from Southwest

Location: Aurillac

Current Time: Sep 20, 2014 at 4:56:00 AM

Latest Report: Sep 20, 2014 at 4:00 AM


Visibility: 10 mi

Pressure: 30.01 "Hg

Humidity: 89%

Dew point: 55 °F

Location of AurillacLocation

Historic Weather in Aurillac — Graph

°F

Aurillac temperature yesterday

Maximum temperature yesterday: 74 °F (at 5:00 PM)
Minimum temperature yesterday: 60 °F (at 10:00 PM)
Average temperature yesterday: 67 °F

Past Weeks' High & Low Weather Summary

 TemperatureHumidityPressure
High81 °F (Sep 7, 4:00 PM)98% (Sep 6, 8:00 AM)30.11 "Hg (Sep 6, 8:00 AM)
Low44 °F (Sep 12, 7:00 AM)39% (Sep 7, 4:00 PM)29.71 "Hg (Sep 17, 5:00 PM)
Average63 °F75%29.93 "Hg
* Reported Sep 5 3:00 AM — Sep 20 3:00 AM, Aurillac, Weather by CustomWeather, © 2014

Note: Actual official high and low records may vary slightly from our data, if they occured in-between our weather recording intervals... More about our weather records

Advertising

Aurillac weather history for previous 24 hours

 ConditionsComfort  
Time TempWeatherWind HumidityBarometerVisibility
3:00 AM
Sep 20
57 °FCool.7 mph89%29.98 "Hg37 mi
2:00 AM58 °FLight rain. Overcast.8 mph93%29.98 "Hg12 mi
1:00 AM57 °FLight rain. Overcast.10 mph93%30.01 "Hg34 mi
12:00 AM57 °FHeavy rain. Overcast.5 mph93%30.01 "Hg7 mi
10:00 PM
Sep 19
60 °FCool.8 mph78%29.98 "Hg37 mi
9:00 PM61 °FLight rain. Passing clouds.13 mph77%29.95 "Hg12 mi
8:00 PM62 °FHeavy rain. Passing clouds.8 mph84%29.91 "Hg7 mi
7:00 PM70 °FMild.5 mph69%29.84 "Hg12 mi
6:00 PM73 °FMild.7 mph63%29.83 "Hg12 mi
5:00 PM74 °FPartly sunny.8 mph60%29.80 "Hg16 mi
4:00 PM72 °FMild.8 mph66%29.83 "Hg12 mi
3:00 PM72 °FOvercast.8 mph68%29.83 "Hg16 mi
2:00 PM71 °FMild.7 mph73%29.85 "Hg12 mi
1:00 PM69 °FOvercast.9 mph75%29.87 "Hg16 mi
12:00 PM71 °FMild.10 mph73%29.86 "Hg12 mi
11:00 AM67 °FOvercast.8 mph78%29.86 "Hg19 mi
10:00 AM66 °FOvercast.9 mph79%29.86 "Hg19 mi
9:00 AM65 °FMild.7 mph82%29.86 "Hg31 mi
8:00 AM64 °FOvercast.6 mph82%29.83 "Hg19 mi
7:00 AM64 °FOvercast.7 mph81%29.82 "Hg12 mi
6:00 AM64 °FOvercast.7 mph81%29.82 "Hg12 mi
5:00 AM64 °FMild.8 mph82%29.82 "Hg34 mi
4:00 AM64 °FMild.5 mph81%29.83 "Hg31 mi
Weather by CustomWeather, © 2014

See weather overviewHow to use our weather pages